User: anonymous
Location: Unspecified
(0.0000°N, 0.0000°E)
Time: 13:23:24
(UTC+00:00)
Language:

Transit 2A Rocket - Orbit

View from above orbital plane
View from above orbital plane
View from above satellite
View from above satellite

Ground track
Ground track

The orbit data is extracted from the following two-line orbital elements,

1 00047U 60007C   14203.10091937  .00000091  00000-0  46321-4 0  2593
2 00047 066.6670 161.2905 0222589 080.6286 281.9907 14.41165052824117
Epoch (UTC): 22 July 2014 02:25:19
Eccentricity: 0.0222589
inclination: 66.6670°
perigee height: 596 km
apogee height: 913 km
right ascension of ascending node: 161.2905°
argument of perigee: 80.6286°
revolutions per day: 14.41165052
mean anomaly at epoch: 281.9907°
orbit number at epoch: 82411

The dashed part of the orbit path shows where the satellite is in the earth's shadow,  

DLR